Terminal Aerodrome Forecast
Issued by NWS Caribou, ME

Current Version | Previous Version | Text Only | Print | Product List | Glossary On
Versions: 1 2 3 4 5 6 7 8 9 10 11 12 13 14 15 16 17 18 19 20
000
FTUS41 KCAR 262339
TAFBGR
TAF
KBGR 262339Z 2700/2724 02011KT 1/2SM SN VV005
     FM270700 02017G27KT 1SM -SN OVC008
     FM271100 36015G25KT 4SM -SN OVC030
     FM271500 33013G23KT P6SM BKN040=

USA.gov is the U.S. government's official web portal to all federal, state and local government web resources and services.